Location: Horowhenua
(40.7500°S, 175.3333°E)
Time: 21:01:45
(UTC+00:00)

Daily predictions for brighter satellites

Satellite Brightness Start Highest point End
(mag) Time Altitude Azimuth Time Altitude Azimuth Time Altitude Azimuth
Cosmos 1833 Rocket 3.3 12:00:01 10° SSW 12:05:18 48° SE 12:05:18 48° SE
USA 267 3.4 12:08:50 61° WNW 12:08:50 61° WNW 12:14:46 10° SW
Meteor 2-6 Rocket 4.4 12:10:49 74° SSW 12:10:49 74° SSW 12:16:24 10° S
SL-8 Rocket 4.4 12:23:17 53° W 12:23:22 53° W 12:29:34 10° S
Cosmos 1727 Rocket 4.1 12:19:24 10° S 12:25:20 70° ESE 12:25:20 70° ESE
Cosmos 1125 Rocket 4.1 12:23:04 10° SSW 12:27:05 53° SSW 12:27:05 53° SSW
IDEFIX/ARIANE 42P 3.9 12:41:03 32° ESE 12:41:09 32° ESE 12:45:48 10° S
ATLAS 2AS CENTAUR R/B 3.4 12:39:52 36° W 12:41:41 44° SW 12:48:08 10° SSE
COSMOS 2406 4.0 12:37:39 10° SSW 12:43:08 43° ESE 12:43:25 43° ESE
Meteor 1-11 Rocket 4.0 12:44:11 10° SSW 12:48:48 61° SSW 12:48:48 61° SSW
Cosmos 1821 Rocket 4.0 12:51:08 76° WSW 12:51:08 76° WSW 12:57:16 10° S
Cosmos 2285 Rocket 4.0 12:52:34 78° SE 12:52:34 78° SE 12:58:36 10° SSE
BREEZE M DEB (TANK) 4.0 12:56:06 36° SE 12:56:06 36° SE 13:00:47 10° ESE
Cosmos 1943 Rocket 3.2 12:57:35 36° ESE 12:57:35 36° ESE 13:01:35 10° SE
NOSS 3-1 (C) 4.3 12:51:38 10° SSW 12:57:44 42° SE 12:59:12 35° E
Cosmos 1934 Rocket 4.2 13:01:04 61° E 13:01:04 61° E 13:06:50 10° SSE
Iridium 4 Rocket 4.3 13:01:57 45° SE 13:01:57 45° SE 13:05:49 10° SSE
Meteor 1-19 Rocket 4.4 13:07:39 75° SE 13:07:39 75° SE 13:13:18 10° SSE
ALOS 2 4.0 13:02:56 10° S 13:05:48 36° SSW 13:05:48 36° SSW
CZ-4C R/B 4.1 13:04:16 10° WSW 13:05:24 15° WSW 13:05:24 15° WSW
GEOS 3 Rocket 4.1 13:06:19 10° SSE 13:10:56 53° SSW 13:10:56 53° SSW
NOSS 2-3 (C) 4.4 13:06:39 10° SW 13:13:45 81° SW 13:13:45 81° SW
Thor Agena Rocket 3.9 13:15:24 64° S 13:15:24 64° S 13:19:52 10° S
ATLAS 5 CENTAUR R/B 4.3 13:16:08 19° E 13:16:08 19° E 13:19:09 10° SE
NOSS 2-3 (D) 4.4 13:07:52 10° SW 13:15:10 84° SSW 13:15:10 84° SSW
Meteor 2-4 Rocket 4.4 13:16:15 44° E 13:16:15 44° E 13:21:09 10° SSE
ASTEX 1 4.2 13:12:32 10° SSE 13:16:27 48° SE 13:16:27 48° SE
Cosmos 2082 Rocket 2.3 13:15:19 10° SSW 13:20:44 71° SE 13:20:44 71° SE
Cosmos 773 Rocket 4.5 13:23:52 57° SSW 13:23:52 57° SSW 13:28:28 10° SSE
Meteor 1-27 Rocket 4.4 13:24:16 45° WSW 13:24:16 45° WSW 13:29:22 10° S
ADEOS II 2.3 13:25:15 68° SE 13:25:15 68° SE 13:30:07 10° S
Cosmos 2278 Rocket 3.1 13:30:21 38° WSW 13:30:33 38° WSW 13:35:53 10° S
Resurs 1-4 Rocket 2.9 13:35:19 44° WSW 13:35:19 44° WSW 13:39:24 10° SSW
Cosmos 1975 4.4 13:31:02 10° S 13:33:39 34° SSE 13:33:39 34° SSE
Cosmos 1605 Rocket 4.0 13:35:42 69° NE 13:36:09 72° E 13:42:37 10° SSE
CZ-2D R/B 2.9 13:38:04 41° WSW 13:38:04 41° WSW 13:41:56 10° SSW
Meteor 1-18 Rocket 4.2 13:38:34 79° ESE 13:38:34 79° ESE 13:44:17 10° SSE
NPP 4.3 13:43:46 44° WSW 13:43:46 44° WSW 13:48:00 10° SSW
Cosmos 1833 Rocket 4.5 13:44:40 10° SW 13:46:57 19° WSW 13:46:57 19° WSW
Cosmos 2369 Rocket 3.2 13:52:09 35° ENE 13:52:30 35° ENE 13:57:40 10° SE
USA 306 4.4 13:49:58 10° SW 13:52:42 32° S 13:52:42 32° S
MOS 1 Rocket 3.8 13:50:33 10° S 13:54:03 52° S 13:54:03 52° S
ATLAS 3B R/B 3.2 13:49:26 10° SW 13:53:59 38° W 13:53:59 38° W
Cosmos 921 Rocket 3.9 13:58:48 45° SSW 13:58:48 45° SSW 14:02:18 10° S
MSX 3.9 13:58:49 64° W 13:58:49 64° W 14:04:23 10° SSW
ALOS 3.7 14:00:04 29° ENE 14:01:21 34° ESE 14:05:37 10° S
Cosmos 1066 Rocket 4.4 14:06:05 56° ENE 14:06:36 59° E 14:12:02 10° SSE
USA 308 4.0 14:03:40 10° SW 14:07:29 40° SSE 14:08:31 33° ESE
MOZ.5/SAFIR/RUBIN 5/SL-8 4.4 14:05:21 10° SSE 14:09:56 48° E 14:09:59 48° ENE
Cosmos 1538 Rocket 4.1 14:11:09 70° WSW 14:11:12 70° WSW 14:16:38 10° SSE
CRYOSAT 2 4.3 14:16:44 86° SSW 14:16:44 86° SSW 14:21:36 10° S
BREEZE-M DEB (TANK) 3.3 14:17:35 83° W 14:17:43 86° SSW 14:27:50 10° ESE
IDEFIX/ARIANE 42P 3.8 14:21:51 29° WSW 14:21:51 29° WSW 14:25:20 10° SSW
Meteor 2-10 4.1 14:15:28 10° S 14:21:06 87° W 14:21:48 70° N
Cosmos 2173 Rocket 4.4 14:19:37 40° NNE 14:21:42 58° E 14:27:59 10° SSE
Cosmos 2228 Rocket 3.4 14:25:12 62° SW 14:25:12 62° SW 14:29:23 10° S
Cosmos 1707 Rocket 3.6 14:27:17 80° ESE 14:27:17 80° ESE 14:31:42 10° S
Cosmos 1805 4.1 14:25:02 10° S 14:27:51 45° SSW 14:27:51 45° SSW
Cosmos 1766 4.2 14:26:25 10° S 14:30:11 42° E 14:30:27 41° E
Cosmos 1680 Rocket 3.8 14:32:33 51° NNE 14:33:32 60° ENE 14:38:49 10° SSE
Lacrosse 5 rocket 1.5 14:37:40 81° ENE 14:37:40 81° ENE 14:42:15 10° SE
Cosmos 1943 Rocket 3.3 14:39:06 27° WSW 14:40:14 29° WSW 14:45:04 10° S
BREEZE M DEB (TANK) 3.8 14:38:34 40° W 14:40:30 69° SSW 14:56:44 10° ESE
OAO 2 Rocket 4.3 14:41:57 33° NE 14:41:57 33° NE 14:45:21 10° ENE
Lacrosse 4 Rocket 1.3 14:43:17 76° ESE 14:43:17 76° ESE 14:47:07 10° SSE
Cosmos 2297 4.1 14:42:42 44° W 14:43:46 49° WSW 14:49:18 10° SSE
Cosmos 2100 Rocket 4.0 14:44:31 46° N 14:46:39 86° W 14:53:09 10° S
Cosmos 1459 Rocket 3.9 14:44:35 45° N 14:46:39 87° E 14:52:49 10° S
BREEZE-M DEB (TANK) 4.1 14:46:11 33° NNE 14:48:12 44° ENE 15:02:28 10° ESE
NOSS 3-1 (C) 4.4 14:43:07 10° SW 14:46:30 25° W 14:46:30 25° W
Cosmos 1802 Rocket 4.1 14:46:05 36° NNE 14:48:43 71° E 14:54:56 10° SSE
Cosmos 1842 3.8 14:48:44 47° ENE 14:49:12 50° E 14:53:03 10° SSE
Cosmos 1726 3.4 14:46:23 10° SSW 14:48:35 31° SW 14:48:35 31° SW
USA 229 DEB 3.5 14:44:36 10° SSW 14:51:18 81° SE 14:57:28 10° NE
USA 229 3.6 14:44:38 10° SSW 14:51:21 80° SE 14:57:34 10° NE
Cosmos 1656 Rocket 3.7 14:53:49 50° NW 14:55:16 73° WSW 15:01:01 10° SSE
FENGYUN 3A 3.9 14:59:17 45° WNW 14:59:57 47° W 15:05:16 10° SSW
Envisat 4.3 14:55:26 10° NE 15:00:11 40° ESE 15:04:59 10° S
Cosmos 1733 Rocket 3.0 14:57:18 10° SSW 15:01:43 63° W 15:02:04 60° WNW
Cosmos 2082 Rocket 4.2 15:01:15 10° WSW 15:02:32 13° WSW 15:02:32 13° WSW
ADEOS II 4.1 15:06:11 13° WSW 15:06:11 13° WSW 15:07:36 10° WSW
USA 307 3.9 15:02:26 10° SW 15:10:49 - NE 15:04:37 30° WSW
ISS -3.2 15:06:37 50° SSW 15:06:38 50° SSW 15:09:58 10° SE
Cosmos 1674 4.2 15:06:14 22° NE 15:07:49 32° E 15:11:11 10° SSE
CZ-2C R/B 3.8 15:03:03 10° NE 15:07:58 49° ESE 15:12:42 10° S
Cosmos 1470 3.5 15:05:03 10° S 15:08:55 51° E 15:11:00 24° NE
Cosmos 1624 Rocket 4.5 15:04:20 10° SSW 15:09:36 61° ESE 15:14:47 10° NNE
SAR-Lupe-2 3.5 15:12:01 57° NNE 15:12:41 86° ESE 15:16:21 10° SSW
IRS-1D 4.3 15:12:58 32° W 15:12:58 32° W 15:17:28 10° SSW
UNK 4.3 15:12:22 10° SSE 15:16:56 54° E 15:19:29 24° NNE
Meteor 1-12 Rocket 4.2 15:12:02 10° SSW 15:17:47 82° W 15:21:45 21° N
Meteor 1-22 Rocket 4.4 15:12:14 10° S 15:17:53 72° E 15:23:04 11° NNE
NOSS 3-1 (A) 3.7 15:13:59 10° SW 15:19:23 35° WNW 15:19:38 35° WNW
Cosmos 2233 Rocket 4.3 15:17:33 18° N 15:22:15 67° E 15:28:25 10° SSE
ARIANE 5 R/B 2.8 15:17:20 10° NNE 15:22:19 67° ESE 15:27:26 10° S
SL-24 DEB 4.4 15:21:51 20° NNE 15:25:12 78° E 15:30:03 10° S
Okean 3 3.4 15:23:47 37° N 15:25:23 88° E 15:29:39 10° S
Cosmos 1707 2.7 15:24:22 38° N 15:25:46 79° E 15:29:43 10° S
CZ-2C R/B 2.5 15:25:08 39° NW 15:26:15 47° W 15:30:45 10° SSW
Tiangong -2.2 15:26:40 69° N 15:26:46 70° NNE 15:30:00 10° E
KORONAS-FOTON 4.1 15:25:19 31° NNE 15:26:57 63° E 15:30:44 10° SSE
CBERS-1 4.4 15:27:05 34° NW 15:28:41 43° W 15:33:39 10° SSW
SL-19 R/B 4.3 15:25:18 21° N 15:29:08 62° WNW 15:34:39 10° SSW
Cosmos 2242 Rocket 4.5 15:25:56 16° NNE 15:29:21 49° E 15:33:49 10° SSE
Okean 1-7 3.0 15:32:38 34° NNW 15:34:28 71° W 15:38:56 10° S
Cosmos 2369 Rocket 3.2 15:33:56 23° WNW 15:36:29 34° WSW 15:41:41 10° S
ALOS 3.4 15:38:31 24° W 15:38:43 24° W 15:42:33 10° SW
SL-16 R/B 2.5 15:34:48 10° SSE 15:41:07 85° WSW 15:45:49 19° NNW
IRS-P3 4.1 15:35:51 10° NNE 15:41:12 80° WNW 15:46:38 10° SSW
YAOGAN 6 2.3 15:41:07 24° N 15:43:06 80° WNW 15:46:37 10° SSW
Cosmos 2016 Rocket 4.2 15:40:11 25° NW 15:43:37 51° WSW 15:49:38 10° S
Meteor 1-21 4.3 15:41:09 14° N 15:46:02 77° E 15:51:42 10° SSE
SL-8 R/B 3.7 15:52:05 10° WSW 15:57:00 89° SE 16:01:52 10° ENE
Cosmos 1420 Rocket 4.2 15:56:56 10° SSW 16:02:02 49° WNW 16:07:06 10° N
Cosmos 1703 Rocket 4.4 16:06:22 19° NW 16:08:56 35° WSW 16:13:08 10° S
USA 281 4.2 16:03:10 10° SE 16:09:31 46° ENE 16:15:47 10° N
Cosmos 1626 3.1 16:08:34 21° WNW 16:10:15 30° WSW 16:13:33 10° SSW
Cosmos 1908 Rocket 4.4 16:07:34 10° SSW 16:11:32 32° W 16:14:30 15° NW
Meteor 1-28 Rocket 4.4 16:11:46 10° SSW 16:14:56 26° WSW 16:16:54 17° WNW
Cosmos 1809 Rocket 4.5 16:09:33 10° S 16:15:49 84° W 16:21:59 10° N
Lacrosse 5 rocket 3.4 16:13:29 10° W 16:17:05 22° SSW 16:20:43 10° SSE
Okean 2 3.3 16:14:00 10° NNW 16:18:05 76° W 16:22:14 10° S
Meteor 1-29 4.2 16:15:37 10° NE 16:18:41 41° ESE 16:21:46 10° S
Helios 1B rocket 3.0 16:15:05 10° NNW 16:18:53 36° W 16:22:45 10° SSW
Cosmos 1271 Rocket 3.9 16:16:30 10° SW 16:19:31 23° W 16:21:34 15° NW
Cosmos 494 Rocket 4.0 16:14:55 12° NNW 16:19:44 70° WSW 16:24:59 10° SSE
ATLAS 5 CENTAUR R/B 3.2 16:13:41 10° NNW 16:21:15 68° ENE 16:28:26 10° SE
Lacrosse 4 Rocket 3.7 16:20:55 10° WSW 16:22:10 11° SW 16:23:24 10° SSW
Cosmos 2056 Rocket 4.4 16:19:45 10° SW 16:24:21 29° W 16:28:56 10° NNW
OAO 2 Rocket 3.8 16:20:52 13° WNW 16:25:02 42° N 16:29:41 10° ENE
CZ-2C R/B 3.3 16:22:20 10° NNE 16:26:17 64° ESE 16:30:14 10° S
PSLV R/B 3.5 16:24:22 10° NNE 16:28:34 89° ESE 16:32:50 10° SSW
Cosmos 1484 Rocket 3.9 16:26:04 12° NW 16:28:37 23° W 16:31:38 10° SW
Cosmos 1300 Rocket 3.5 16:24:47 10° SSW 16:29:08 66° W 16:33:26 10° N
Helios 1A 3.6 16:26:40 10° SSE 16:30:52 58° E 16:35:01 10° N
SL-27 R/B 2.4 16:28:01 10° SSW 16:31:19 78° ESE 16:34:35 10° NNE
NOAA 11 4.5 16:29:13 10° N 16:34:25 46° W 16:39:42 10° SSW
CZ-2C R/B 3.5 16:29:49 10° SSE 16:35:02 51° E 16:40:05 10° N
Cosmos 1048 Rocket 4.4 16:30:57 10° NW 16:36:13 53° WSW 16:41:30 10° S
Cosmos 1782 Rocket 4.4 16:32:56 10° SSW 16:36:52 32° W 16:40:44 10° NNW
Cosmos 1758 4.0 16:34:07 10° SSW 16:37:46 34° W 16:41:23 10° NNW
Cosmos 1953 2.7 16:34:28 10° S 16:38:35 69° E 16:42:37 10° NNE
Envisat 4.1 16:35:13 10° NNW 16:39:18 24° W 16:43:25 10° SW
USA 215 4.4 16:34:00 10° ENE 16:40:15 49° SSE 16:46:32 10° SW
H-2A R/B 3.2 16:37:09 10° NE 16:42:13 50° ESE 16:47:12 10° S
H-2A R/B 3.6 16:39:26 10° NNW 16:42:49 30° W 16:46:14 10° SSW
ISS -1.2 16:41:47 10° SW 16:43:59 16° SSW 16:46:12 10° SSE
Cosmos 1464 Rocket 4.1 16:39:11 10° N 16:45:26 83° W 16:51:51 10° S
CZ-2C R/B 4.4 16:44:32 10° NW 16:48:02 18° W 16:51:28 10° SW
CZ-4B R/B 4.0 16:44:32 10° NNE 16:49:43 68° ESE 16:54:50 10° S
ASTRO E2 4.4 16:47:29 10° NW 16:50:05 17° N 16:52:41 10° NNE
Centaur D-1A AC-31 3.8 16:45:18 10° WNW 16:50:14 14° NW 16:53:11 10° NNW
SJ-12 4.0 16:46:42 10° N 16:50:48 64° W 16:54:57 10° SSW
Cosmos 2084 3.7 16:47:03 10° SW 16:51:40 53° WNW 16:56:00 10° NNE
